Two Harbors, MN

2:53 PM CDT on August 28, 2016 (GMT -0500)
Helgeson

Weather History for KTWM - March, 2013

Change the Weather History Date:

Wednesday, March 20, 2013

  Actual Average Record
Temperature  
Mean Temperature 12 °F -  
Max Temperature 19 °F 38 °F 64 °F (2012)
Min Temperature 5 °F 24 °F -11 °F (1965)
Degree Days  
Heating Degree Days 53    
Moisture  
Dew Point -1 °F    
Average Humidity 56    
Maximum Humidity 72    
Minimum Humidity 46    
Precipitation  
Precipitation 0.00 in - - ()
Sea Level Pressure  
Sea Level Pressure 30.00 in    
Wind  
Wind Speed 8 mph (NW)    
Max Wind Speed 15 mph    
Max Gust Speed 24 mph    
Visibility 10 miles    
Events Snow    
Averages and records for this station are not official NWS values.
T = Trace of Precipitation, MM = Missing Value Source: NWS Daily Summary

Daily Weather History Graph

Daily Weather History Graph

Search for Another Location

Airport or City:

Trip Planner

Search our weather history database for the weather conditions in past years. The results will help you decide how hot, cold, wet, or windy it might be!

Date:

Astronomy

Mar. 20, 2013 Rise Set
Actual Time 7:09 AM CDT 7:20 PM CDT
Civil Twilight 6:39 AM CDT 7:50 PM CDT
Nautical Twilight 6:03 AM CDT 8:26 PM CDT
Astronomical Twilight 5:26 AM CDT 9:03 PM CDT
Moon 12:34 PM CDT (3/20) 3:10 AM CDT (3/20)
Length of Visible Light 13h 11m
Length of Day
12h 10m
First Quarter, 59% of the Moon is Illuminated
Mar 20
First Quarter
Mar 27
Full
Apr 2
Last Quarter
Apr 10
New
Apr 18
First Quarter

Hourly Weather History & Observations

Time (CDT) Temp. Windchill Dew Point Humidity Pressure Visibility Wind Dir Wind Speed Gust Speed Precip Events Conditions
12:31 AM 10.4 °F -1.5 °F -2.2 °F 57% 29.95 in 10.0 mi West 8.1 mph 19.6 mph N/A   Clear
12:52 AM 10.4 °F -4.1 °F -2.2 °F 57% 29.95 in 10.0 mi WNW 11.5 mph 24.2 mph N/A   Clear
1:11 AM 10.4 °F -2.4 °F -2.2 °F 57% 29.95 in 10.0 mi WNW 9.2 mph 17.3 mph N/A   Clear
1:31 AM 8.6 °F -6.3 °F -2.2 °F 62% 29.95 in 10.0 mi WNW 11.5 mph 16.1 mph N/A   Clear
1:51 AM 8.6 °F -3.7 °F -2.2 °F 62% 29.95 in 10.0 mi West 8.1 mph - N/A   Clear
2:11 AM 8.6 °F -3.7 °F -4.0 °F 57% 29.95 in 10.0 mi West 8.1 mph - N/A   Clear
2:32 AM 6.8 °F -6.9 °F -4.0 °F 61% 29.95 in 10.0 mi WNW 9.2 mph - N/A   Clear
2:51 AM 6.8 °F -7.8 °F -4.0 °F 61% 29.96 in 10.0 mi West 10.4 mph 19.6 mph N/A   Clear
3:11 AM 6.8 °F -6.9 °F -5.8 °F 56% 29.96 in 10.0 mi WNW 9.2 mph 16.1 mph N/A   Clear
3:31 AM 6.8 °F -4.8 °F -5.8 °F 56% 29.96 in 10.0 mi WNW 6.9 mph - N/A   Clear
3:51 AM 6.8 °F -5.9 °F -5.8 °F 56% 29.96 in 10.0 mi West 8.1 mph - N/A   Clear
4:11 AM 6.8 °F -7.8 °F -4.0 °F 61% 29.96 in 10.0 mi West 10.4 mph - N/A   Clear
4:31 AM 6.8 °F -3.5 °F -4.0 °F 61% 29.96 in 10.0 mi WNW 5.8 mph - N/A   Clear
4:51 AM 6.8 °F -5.9 °F -4.0 °F 61% 29.96 in 10.0 mi West 8.1 mph - N/A   Clear
5:11 AM 6.8 °F -6.9 °F -4.0 °F 61% 29.97 in 10.0 mi WNW 9.2 mph - N/A   Clear
5:51 AM 6.8 °F -5.9 °F -4.0 °F 61% 29.98 in 10.0 mi WNW 8.1 mph - N/A   Clear
6:11 AM 6.8 °F -6.9 °F -4.0 °F 61% 29.98 in 10.0 mi WNW 9.2 mph 18.4 mph N/A   Clear
6:31 AM 6.8 °F -8.6 °F -4.0 °F 61% 29.98 in 10.0 mi WNW 11.5 mph 18.4 mph N/A   Mostly Cloudy
6:51 AM 5.0 °F -10.0 °F -4.0 °F 66% 29.98 in 10.0 mi WNW 10.4 mph 18.4 mph N/A   Mostly Cloudy
7:11 AM 5.0 °F -8.1 °F -4.0 °F 66% 29.98 in 10.0 mi WNW 8.1 mph 20.7 mph N/A   Mostly Cloudy
7:31 AM 5.0 °F -10.0 °F -4.0 °F 66% 29.99 in 10.0 mi WNW 10.4 mph 18.4 mph N/A   Scattered Clouds
7:51 AM 5.0 °F -11.6 °F -5.8 °F 61% 29.99 in 10.0 mi WNW 12.7 mph 21.9 mph N/A   Clear
8:11 AM 5.0 °F -10.0 °F -5.8 °F 61% 29.98 in 10.0 mi WNW 10.4 mph 20.7 mph N/A   Clear
8:31 AM 5.0 °F -8.1 °F -5.8 °F 61% 29.98 in 10.0 mi NW 8.1 mph 20.7 mph N/A   Clear
8:51 AM 6.8 °F -7.8 °F -4.0 °F 61% 29.99 in 10.0 mi WNW 10.4 mph 19.6 mph N/A   Clear
9:11 AM 6.8 °F -8.6 °F -4.0 °F 61% 29.98 in 10.0 mi WNW 11.5 mph 23.0 mph N/A   Clear
9:31 AM 6.8 °F -6.9 °F -4.0 °F 61% 29.99 in 10.0 mi NW 9.2 mph - N/A   Clear
9:52 AM 6.8 °F -7.8 °F -2.2 °F 67% 29.99 in 10.0 mi NW 10.4 mph 20.7 mph N/A   Clear
10:11 AM 8.6 °F -5.5 °F -2.2 °F 62% 29.98 in 7.0 mi NW 10.4 mph 20.7 mph N/A Snow Light Snow
10:31 AM 10.4 °F -3.3 °F -2.2 °F 57% 29.98 in 3.0 mi NW 10.4 mph 19.6 mph N/A   Haze
10:52 AM 12.2 °F -0.2 °F -2.2 °F 53% 29.98 in 10.0 mi NNW 9.2 mph 23.0 mph N/A   Clear
11:11 AM 12.2 °F 0.7 °F -2.2 °F 53% 29.99 in 10.0 mi NW 8.1 mph 23.0 mph N/A   Clear
11:31 AM 12.2 °F -1.0 °F -2.2 °F 53% 29.99 in 10.0 mi NW 10.4 mph 20.7 mph N/A   Clear
11:52 AM 14.0 °F 1.2 °F -2.2 °F 49% 29.99 in 10.0 mi NW 10.4 mph 18.4 mph N/A   Clear
12:10 PM 15.8 °F 0.9 °F -0.4 °F 49% 29.99 in 10.0 mi NW 15.0 mph 21.9 mph N/A   Clear
12:51 PM 15.8 °F 2.1 °F -0.4 °F 49% 29.99 in 10.0 mi WNW 12.7 mph 20.7 mph N/A   Clear
1:11 PM 17.6 °F 9.3 °F 1.4 °F 49% 29.99 in 10.0 mi NNW 5.8 mph 18.4 mph N/A   Clear
1:31 PM 19.4 °F 7.2 °F 1.4 °F 46% 29.99 in 10.0 mi NNW 11.5 mph 19.6 mph N/A   Scattered Clouds
1:51 PM 19.4 °F 7.9 °F 1.4 °F 46% 29.98 in 10.0 mi NNW 10.4 mph 16.1 mph N/A   Scattered Clouds
2:12 PM 17.6 °F 6.4 °F 1.4 °F 49% 29.98 in 10.0 mi NW 9.2 mph 19.6 mph N/A   Clear
2:31 PM 19.4 °F 9.5 °F 1.4 °F 46% 29.98 in 7.0 mi WNW 8.1 mph 18.4 mph N/A   Scattered Clouds
2:51 PM 19.4 °F 7.9 °F 1.4 °F 46% 29.99 in 10.0 mi NNW 10.4 mph - N/A   Mostly Cloudy
3:11 PM 17.6 °F 8.2 °F 1.4 °F 49% 29.99 in 10.0 mi NW 6.9 mph 16.1 mph N/A   Scattered Clouds
3:31 PM 17.6 °F 12.3 °F 1.4 °F 49% 29.99 in 10.0 mi NNW 3.5 mph - N/A   Scattered Clouds
3:51 PM 19.4 °F 8.6 °F 1.4 °F 46% 29.99 in 10.0 mi WNW 9.2 mph 16.1 mph N/A   Mostly Cloudy
4:11 PM 17.6 °F 9.3 °F 1.4 °F 49% 29.99 in 10.0 mi WNW 5.8 mph - N/A   Mostly Cloudy
4:31 PM 19.4 °F 8.6 °F 1.4 °F 46% 30.00 in 10.0 mi NNW 9.2 mph - N/A   Mostly Cloudy
4:51 PM 17.6 °F 8.2 °F 1.4 °F 49% 30.01 in 10.0 mi NW 6.9 mph 17.3 mph N/A   Mostly Cloudy
5:11 PM 19.4 °F 9.5 °F 1.4 °F 46% 30.02 in 10.0 mi NNW 8.1 mph 16.1 mph N/A   Overcast
5:31 PM 17.6 °F 8.2 °F 1.4 °F 49% 30.02 in 10.0 mi NNW 6.9 mph - N/A   Mostly Cloudy
5:51 PM 17.6 °F 7.3 °F 1.4 °F 49% 30.03 in 10.0 mi North 8.1 mph - N/A   Mostly Cloudy
6:11 PM 17.6 °F 6.4 °F 1.4 °F 49% 30.04 in 10.0 mi NNW 9.2 mph - N/A   Overcast
6:31 PM 15.8 °F 8.6 °F 1.4 °F 53% 30.05 in 10.0 mi NW 4.6 mph - N/A   Overcast
6:51 PM 15.8 °F 6.1 °F 1.4 °F 53% 30.05 in 10.0 mi NNW 6.9 mph - N/A   Overcast
7:10 PM 15.8 °F 7.2 °F 1.4 °F 53% 30.05 in 10.0 mi NNW 5.8 mph - N/A   Overcast
7:31 PM 15.8 °F 6.1 °F -0.4 °F 49% 30.04 in 10.0 mi North 6.9 mph - N/A   Overcast
7:51 PM 15.8 °F 10.2 °F 1.4 °F 53% 30.04 in 10.0 mi NW 3.5 mph - N/A   Overcast
8:11 PM 14.0 °F 8.2 °F 1.4 °F 57% 30.04 in 10.0 mi North 3.5 mph - N/A   Overcast
8:31 PM 14.0 °F 6.5 °F 1.4 °F 57% 30.04 in 10.0 mi NNW 4.6 mph - N/A   Overcast
8:51 PM 14.0 °F - 1.4 °F 57% 30.05 in 10.0 mi Calm Calm - N/A   Overcast
9:11 PM 12.2 °F - 1.4 °F 62% 30.05 in 10.0 mi Calm Calm - N/A   Overcast
9:31 PM 12.2 °F - -0.4 °F 57% 30.05 in 10.0 mi Calm Calm - N/A   Overcast
9:52 PM 12.2 °F - -0.4 °F 57% 30.05 in 10.0 mi Calm Calm - N/A   Overcast
10:11 PM 10.4 °F - -0.4 °F 62% 30.05 in 10.0 mi Calm Calm - N/A   Overcast
10:31 PM 10.4 °F - -0.4 °F 62% 30.06 in 10.0 mi Calm Calm - N/A   Mostly Cloudy
10:52 PM 8.6 °F - -0.4 °F 67% 30.06 in 10.0 mi Calm Calm - N/A   Mostly Cloudy
11:11 PM 6.8 °F - -2.2 °F 67% 30.05 in 10.0 mi Calm Calm - N/A   Scattered Clouds
11:31 PM 5.0 °F - -2.2 °F 72% 30.05 in 10.0 mi Calm Calm - N/A   Clear
11:52 PM 5.0 °F -2.1 °F -2.2 °F 72% 30.05 in 10.0 mi WNW 3.5 mph - N/A   Clear